Regional Weather Roundup
Issued by NWS New Orleans/Baton Rouge, LA

Home | Current Version | Previous Version | Graphics & Text | Print | Product List | Glossary On
Versions: 1 2 3 4 5 6 7 8 9 10 11 12 13 14 15 16 17 18 19 20 21 22 23 24 25 26 27 28 29 30 31 32 33 34 35 36 37 38 39 40 41 42 43 44 45 46 47 48 49 50
497
ASUS44 KLIX 251305
RWRLIX
NEW ORLEANS REGIONAL WEATHER ROUNDUP
NATIONAL WEATHER SERVICE NEW ORLEANS LA
800 AM CDT SAT OCT 25 2014

NOTE: "FAIR" INDICATES FEW OR NO CLOUDS BELOW 12,000 FEET WITH NO
      SIGNIFICANT WEATHER AND/OR OBSTRUCTIONS TO VISIBILITY.
      SKY/WX - SKY CONDITION AND SIGNIFICANT WEATHER.
      TMP - AIR TEMPERATURE.     DP    - DEWPOINT TEMPERATURE.
      RH  - RELATIVE HUMIDITY.   PRES  - PRESSURE.
      HI  - HEAT INDEX.          WCI   - WIND CHILL INDEX.

*  THESE STATIONS ARE NOT NWS OR FAA STATIONS AND ARE NOT UNDER
   NWS QUALITY CONTROL.

LAZ038-040-048-061>063-065>067-069-251400-
SOUTHEAST LOUISIANA

CITY           SKY/WX    TMP DP  RH WIND       PRES   REMARKS
N.O. AUDUBON   NOT AVBL
N.O. INTL ARPT PTCLDY    59  51  75 CALM      30.14R
N.O. LAKEFRONT CLEAR     65  52  62 NE8       30.14R
N.O. DOWNTOWN*   N/A     63  48  59 NE3       30.14R
SLIDELL        CLEAR     48  44  86 N3        30.13R
BATON ROUGE    CLEAR     49  46  90 CALM      30.15R
BOOTHVILLE     SUNNY     68  56  65 N6        30.12R
BELLE CHASSE   PTCLDY    53  50  89 CALM      30.13R
BOGALUSA*        N/A     46  43  90 CALM      30.16R
NEW ROADS*       N/A     47  46  96 CALM      30.15R
GONZALES*        N/A     48  48 100 CALM      30.15R
HAMMOND*       CLEAR     48  46  93 CALM      30.16R
HOUMA*         CLEAR     54  52  94 CALM      30.14R
PORT FOURCHON* SUNNY     66  57  72 N5        30.16R

$$

MSZ070-080>082-251400-
SOUTHERN MISSISSIPPI

CITY           SKY/WX    TMP DP  RH WIND       PRES   REMARKS
MCCOMB         CLEAR     52  46  80 N5        30.15R
GULFPORT       SUNNY     52  48  86 CALM      30.12R
BILOXI         SUNNY     54  49  81 N5        30.12R
PASCAGOULA     SUNNY     49  47  93 CALM      30.13R
STENNIS ARPT*  SUNNY     46  45  93 CALM      30.14R

$$

COASTAL OBSERVATIONS
LAKE AND NEARSHORE STATIONS

STATION/POSITION TIME  TEMP    WIND        PRES    WAVE
                       AIR SEA DIR/SP/G            HT/PER
                 (UTC) (F)     (DEG/KT/KT) (MB)    (FT/S)
PASCAGOULA       1300   54     360/  8/ 10 1019.3
WAVELAND YACHT   1300   58      40/  7/  8 1019.4
GRAND ISLE       1300   66 71   40/  8/ 12 1020.4
SOUTHWEST PASS   1300   74 80              1019.6
NEW CANAL        1300   65 69   50/  8/  9 1020.8
SHELL BEACH      1300   65 65   30/  9/ 10 1020.0

OFFSHORE STATIONS

STATION/POSITION TIME  TEMP    WIND        PRES    WAVE
                       AIR SEA DIR/SP/G            HT/PER
                 (UTC) (F)     (DEG/KT/KT) (MB)    (FT/S)
64 S DAUPHIN ISL 1151   72 78   30/ 14/ 17 1019.2    4/ 5

$$




USA.gov is the U.S. government's official web portal to all federal, state and local government web resources and services.